Location: Quedlinburg
(51.7921°N, 11.1414°E)
Time: 08:16:40
(UTC+02:00)

RS-44 - Pass Details

Date: 21 March 2026
Orbit: 1175 x 1510 km, 82.5° (Epoch: 13 April)

Event Time Altitude Azimuth Distance (km) Brightness Sun altitude
Rises 23:20:10 0° 348° (NNW) 4,415 ? -36.1°
Reaches altitude 10° 23:24:18 10° 8° (N) 3,501 ? -36.3°
Maximum altitude 23:29:35 18° 47° (NE) 3,015 ? -36.5°
Enters shadow 23:34:15 12° 82° (E) 3,482 ? -36.7°
